sat.trackr.live / text

‹ back to catalog

STARLINK-34614

NORAD 65030 · 2025-161R

PAYLOAD ACTIVE UNKNOWN

§ Identity

Operator
Country
US
Launch date
2025-07-30
Launch site
AFWTR
Launch vehicle
Mass (kg)
RCS (m²)

Purposes: comms

External: N2YO · Heavens-Above · Gunter

§ Orbital elements

Epoch: 2026-05-25T03:51:31.684896Z

Period
94.10 min
Inclination
53.1606°
Eccentricity
0.0001088
Mean motion
15.30210006 rev/d
Perigee alt
474.4 km
Apogee alt
475.9 km
Semi-major
6,853.3 km
B*
5.8820e-4
RAAN
299.3073°
Arg perigee
69.1453°
Mean anomaly
290.9664°
Rev number
4,703

§ Raw data

STARLINK-346141 65030U 25161R   26145.16078339  .00017107  00000+0  58820-3 0  99952 65030  53.1606 299.3073 0001088  69.1453 290.9664 15.30210006 47033

JSON: /api/v1/satellites/65030 · /tle

For live sub-satellite position, see the globe view (requires WebGL).

§ Visibility from observer

Set your observer location to see the next 7 days of passes ≥ 10°. The values pass through the URL so the page stays shareable.

No JS? Fill the form by hand. The geolocation button needs JavaScript.